Torna al catalogo

STARLINK-35595

AttivoComunicazioniVLEO
NORAD 66101·PAYLOAD·🇺🇸 United States

Lanciato Oct 19, 2025 da Vandenberg Space Force Base

Loading…

Prossimi Passaggi (prossime 24 ore)

TLE

AggiornatoSource: CelesTrak SupGP

Epoca: Sep 14, 2026, 21:01 UTC

1 66101C 25236R   26257.87618056  .00001791  00000+0  52940-4 0  2573
2 66101  53.1574 302.1394 0001233  87.7104 212.3460 15.34380962    19

Traccia STARLINK-35595 in tempo reale con AllMySat

Download on the App Store